Location: Tucson
(32.2217°N, 110.9265°W)
Time: 13:58:04
(UTC-07:00)

Envisat - Visible Passes

Search period start: 25 September 2020 00:00
Search period end: 05 October 2020 00:00
Orbit: 764 x 766 km, 98.1° (Epoch: 25 September)

Date Brightness Start Highest point End Pass type
(mag) Time Alt. Az. Time Alt. Az. Time Alt. Az.
26 Sep 6.0 18:47:42 10° SW 18:51:19 20° W 18:54:58 10° NW visible
27 Sep 6.0 05:22:08 10° NE 05:25:38 19° E 05:29:08 10° SE visible
29 Sep 5.0 05:46:35 10° NNE 05:51:12 35° E 05:55:48 10° SSE visible
29 Sep 5.6 18:35:44 10° SSW 18:39:54 26° W 18:44:05 10° NW visible
30 Sep 6.2 05:11:32 10° ENE 05:14:11 14° E 05:16:50 10° SE visible
01 Oct 6.3 19:03:05 10° WSW 19:05:30 13° W 19:07:57 10° WNW visible
02 Oct 5.5 05:35:32 10° NE 05:39:48 27° E 05:44:02 10° SSE visible
02 Oct 5.1 18:23:57 10° SSW 18:28:28 33° W 18:33:03 10° NNW visible
03 Oct 6.6 05:01:54 10° E 05:02:43 10° E 05:03:32 10° E visible
04 Oct 6.1 18:50:41 10° SW 18:54:03 18° W 18:57:27 10° NW visible
